timestamp,surface_pressure_avg,surface_temp_avg,battery_voltage,lat,long
2022-12-03 00:09:00+00:00,250.8331,5.3,12.73,47.84626,-54.09684
2022-12-03 00:19:00+00:00,241.2631,5.26,12.65,47.84626,-54.09684
2022-12-03 00:29:00+00:00,237.0764,5.21,12.65,47.84626,-54.09684
2022-12-03 00:39:00+00:00,239.1714,5.23,12.65,47.84626,-54.09684
2022-12-03 00:49:00+00:00,241.1648,5.22,12.65,47.84626,-54.09684
2022-12-03 00:59:00+00:00,235.0581,5.2,12.65,47.84626,-54.09684
2022-12-03 01:09:00+00:00,236.4214,5.2,12.65,47.84626,-54.09684
2022-12-03 01:19:00+00:00,239.5731,5.16,12.65,47.84626,-54.09684
2022-12-03 01:29:00+00:00,235.2365,5.0,12.65,47.84626,-54.09684
2022-12-03 01:39:00+00:00,228.8464,4.88,12.65,47.84626,-54.09684
2022-12-03 01:49:00+00:00,232.3481,4.8,12.65,47.84626,-54.09684
2022-12-03 01:59:00+00:00,234.3731,4.8,12.65,47.84626,-54.09684
2022-12-03 02:09:00+00:00,234.2047,4.8,12.65,47.84626,-54.09684
2022-12-03 02:19:01+00:00,231.7414,4.8,12.65,47.84626,-54.09684
2022-12-03 02:29:01+00:00,236.1331,4.85,12.65,47.84626,-54.09684
2022-12-03 02:39:01+00:00,236.6697,4.92,12.65,47.84626,-54.09684
2022-12-03 02:49:01+00:00,229.1898,4.8,12.65,47.84626,-54.09684
2022-12-03 02:59:01+00:00,231.7314,4.8,12.65,47.84626,-54.09684
2022-12-03 03:09:01+00:00,242.0563,4.94,12.65,47.84626,-54.09684
2022-12-03 03:19:00+00:00,241.4314,5.1,12.65,47.84626,-54.09684
2022-12-03 03:29:00+00:00,241.9547,5.1,12.65,47.84626,-54.09684
2022-12-03 03:39:00+00:00,249.0898,5.1,12.65,47.84626,-54.09684
2022-12-03 03:49:00+00:00,248.0647,5.1,12.65,47.84626,-54.09684
2022-12-03 03:59:00+00:00,244.0448,5.1,12.65,47.84626,-54.09684
2022-12-03 04:09:00+00:00,254.7131,5.1,12.65,47.84626,-54.09684
2022-12-03 04:19:00+00:00,266.5481,5.15,12.65,47.84626,-54.09684
2022-12-03 04:29:00+00:00,264.8181,5.1,12.65,47.84626,-54.09684
2022-12-03 04:39:00+00:00,264.7548,5.1,12.65,47.84626,-54.09684
2022-12-03 04:49:00+00:00,281.4181,5.16,12.65,47.84626,-54.09684
2022-12-03 04:59:00+00:00,287.7047,5.2,12.65,47.84626,-54.09684
2022-12-03 05:09:00+00:00,285.4814,5.2,12.65,47.84626,-54.09684
2022-12-03 05:19:00+00:00,290.4714,5.2,12.65,47.84626,-54.09684
2022-12-03 05:29:00+00:00,308.4697,5.2,12.65,47.84626,-54.09684
2022-12-03 05:39:00+00:00,318.463,5.2,12.65,47.84626,-54.09684
2022-12-03 05:49:00+00:00,318.8496,5.2,12.65,47.84626,-54.09684
2022-12-03 05:59:00+00:00,326.1013,5.17,12.65,47.84626,-54.09684
2022-12-03 06:09:00+00:00,328.7913,5.2,12.65,47.84626,-54.09684
2022-12-03 06:19:00+00:00,325.5529,5.2,12.65,47.84626,-54.09684
2022-12-03 06:29:00+00:00,330.6213,5.2,12.65,47.84626,-54.09684
2022-12-03 06:39:00+00:00,340.9980000000001,5.2,12.65,47.84626,-54.09684
2022-12-03 06:49:00+00:00,343.2047,5.22,12.65,47.84626,-54.09684
2022-12-03 06:59:00+00:00,335.5963,5.2,12.65,47.84626,-54.09684
2022-12-03 07:09:00+00:00,337.1296,5.2,12.65,47.84626,-54.09684
2022-12-03 07:19:00+00:00,343.9413,5.2,12.65,47.84626,-54.09684
2022-12-03 07:29:00+00:00,348.8412,5.2,12.65,47.84626,-54.09684
2022-12-03 07:39:00+00:00,347.6297,5.2,12.65,47.84626,-54.09684
2022-12-03 07:49:00+00:00,346.213,5.2,12.65,47.84626,-54.09684
2022-12-03 07:59:00+00:00,349.403,5.2,12.65,47.84626,-54.09684
2022-12-03 08:09:00+00:00,351.1413,5.2,12.65,47.84626,-54.09684
2022-12-03 08:19:00+00:00,346.2047,5.2,12.65,47.84626,-54.09684
2022-12-03 08:29:00+00:00,343.8246,5.2,12.65,47.84626,-54.09684
2022-12-03 08:39:00+00:00,344.3663,5.2,12.65,47.84626,-54.09684
2022-12-03 08:49:00+00:00,343.6813,5.2,12.65,47.84626,-54.09684
2022-12-03 08:59:00+00:00,340.1363,5.2,12.65,47.84626,-54.09684
2022-12-03 09:09:00+00:00,339.9012,5.2,12.65,47.84626,-54.09684
2022-12-03 09:19:00+00:00,341.1763,5.2,12.65,47.84626,-54.09684
2022-12-03 09:29:00+00:00,332.8046,5.2,12.65,47.84626,-54.09684
2022-12-03 09:39:00+00:00,332.0913,5.2,12.65,47.84626,-54.09684
2022-12-03 09:49:00+00:00,332.1346,5.2,12.65,47.84626,-54.09684
2022-12-03 09:59:00+00:00,322.3047,5.2,12.65,47.84626,-54.09684
2022-12-03 10:09:00+00:00,309.5747,5.23,12.65,47.84626,-54.09684
2022-12-03 10:19:00+00:00,302.923,5.3,12.65,47.84626,-54.09684
2022-12-03 10:29:00+00:00,301.9147,5.3,12.65,47.84626,-54.09684
2022-12-03 10:39:00+00:00,295.0681,5.28,12.65,47.84626,-54.09684
2022-12-03 10:49:00+00:00,291.1146,5.2,12.65,47.84626,-54.09684
2022-12-03 10:59:00+00:00,284.7947,5.2,12.65,47.84626,-54.09684
2022-12-03 11:09:00+00:00,276.733,5.1,12.65,47.84626,-54.09684
2022-12-03 11:19:00+00:00,273.2664,4.9,12.57,47.84626,-54.09684
2022-12-03 11:29:00+00:00,271.1248,4.84,12.57,47.84626,-54.09684
2022-12-03 11:39:00+00:00,265.2564,4.92,12.57,47.84626,-54.09684
2022-12-03 11:49:00+00:00,260.4481,5.05,12.57,47.84626,-54.09684
2022-12-03 11:59:00+00:00,259.4647,5.0,12.57,47.84626,-54.09684
2022-12-03 12:09:00+00:00,252.1831,4.9,12.57,47.84626,-54.09684
2022-12-03 12:19:00+00:00,244.5848,4.8,12.65,47.84626,-54.09684
2022-12-03 12:29:00+00:00,240.6614,4.8,12.65,47.84626,-54.09684
2022-12-03 12:39:00+00:00,238.8364,4.8,12.65,47.84626,-54.09684
2022-12-03 12:49:00+00:00,232.9547,4.8,12.65,47.84626,-54.09684
2022-12-03 12:59:00+00:00,228.6497,4.86,12.65,47.84626,-54.09684
2022-12-03 13:09:00+00:00,228.8548,4.91,12.65,47.84626,-54.09684
2022-12-03 13:19:00+00:00,223.3798,4.99,12.89,47.84626,-54.09684
2022-12-03 13:29:00+00:00,218.9714,5.01,12.89,47.84626,-54.09684
2022-12-03 13:39:00+00:00,224.5165,5.05,12.89,47.84626,-54.09684
2022-12-03 13:49:00+00:00,226.6564,5.0,12.89,47.84626,-54.09684
2022-12-03 13:59:00+00:00,218.0397,4.9,12.89,47.84626,-54.09684
2022-12-03 14:09:00+00:00,217.6531,4.9,12.89,47.84626,-54.09684
2022-12-03 14:19:00+00:00,221.1414,4.96,14.24,47.84626,-54.09684
2022-12-03 14:29:00+00:00,216.7881,5.0,14.24,47.84626,-54.09684
2022-12-03 14:39:00+00:00,215.8498,5.11,14.24,47.84626,-54.09684
2022-12-03 14:49:00+00:00,219.8698,5.27,14.24,47.84626,-54.09684
2022-12-03 14:59:00+00:00,223.4415,5.3,14.24,47.84626,-54.09684
2022-12-03 15:09:00+00:00,220.6164,5.3,14.24,47.84626,-54.09684
2022-12-03 15:19:00+00:00,219.5264,5.3,15.35,47.84626,-54.09684
2022-12-03 15:29:00+00:00,222.0131,5.3,15.35,47.84626,-54.09684
2022-12-03 15:39:00+00:00,222.3498,5.3,15.35,47.84626,-54.09684
2022-12-03 15:49:00+00:00,217.2131,5.3,15.35,47.84626,-54.09684
2022-12-03 15:59:00+00:00,217.6314,5.3,15.35,47.84626,-54.09684
2022-12-03 16:09:00+00:00,226.3448,5.3,15.35,47.84626,-54.09684
2022-12-03 16:19:01+00:00,230.3381,5.3,14.96,47.84626,-54.09684
2022-12-03 16:29:01+00:00,226.4497,5.3,14.96,47.84626,-54.09684
2022-12-03 16:39:01+00:00,228.9365,5.32,14.96,47.84626,-54.09684
2022-12-03 16:49:01+00:00,237.1081,5.3,14.96,47.84626,-54.09684
2022-12-03 16:59:01+00:00,244.0547,5.3,14.96,47.84626,-54.09684
2022-12-03 17:09:01+00:00,245.9331,5.32,14.96,47.84626,-54.09684
2022-12-03 17:19:00+00:00,253.6864,5.31,13.84,47.84626,-54.09684
2022-12-03 17:29:00+00:00,261.5997,5.31,13.84,47.84626,-54.09684
2022-12-03 17:39:00+00:00,266.308,5.3,13.84,47.84626,-54.09684
2022-12-03 17:49:00+00:00,270.1697,5.34,13.84,47.84626,-54.09684
2022-12-03 17:59:00+00:00,282.6597,5.36,13.84,47.84626,-54.09684
2022-12-03 18:09:00+00:00,288.2681,5.38,13.84,47.84626,-54.09684
2022-12-03 18:19:00+00:00,292.1964,5.37,13.6,47.84626,-54.09684
2022-12-03 18:29:00+00:00,300.9864,5.39,13.6,47.84626,-54.09684
2022-12-03 18:39:00+00:00,307.788,5.39,13.6,47.84626,-54.09684
2022-12-03 18:49:00+00:00,306.8247,5.38,13.6,47.84626,-54.09684
2022-12-03 18:59:00+00:00,311.4714,5.39,13.6,47.84626,-54.09684
2022-12-03 19:09:00+00:00,322.6896,5.39,13.6,47.84626,-54.09684
2022-12-03 19:19:01+00:00,323.7812,5.39,13.13,47.84626,-54.09684
2022-12-03 19:29:01+00:00,319.118,5.4,13.13,47.84626,-54.09684
2022-12-03 19:39:01+00:00,326.8196,5.39,13.13,47.84626,-54.09684
2022-12-03 19:49:01+00:00,332.228,5.39,13.13,47.84626,-54.09684
2022-12-03 19:59:01+00:00,329.2447,5.38,13.13,47.84626,-54.09684
2022-12-03 20:09:01+00:00,329.2096,5.35,13.13,47.84626,-54.09684
2022-12-03 20:19:00+00:00,336.0045,5.36,12.89,47.84626,-54.09684
2022-12-03 20:29:00+00:00,338.6913,5.36,12.89,47.84626,-54.09684
2022-12-03 20:39:00+00:00,334.2313,5.34,12.89,47.84626,-54.09684
2022-12-03 20:49:00+00:00,334.5814,5.3,12.89,47.84626,-54.09684
2022-12-03 20:59:00+00:00,330.8146,5.3,12.89,47.84626,-54.09684
2022-12-03 21:09:00+00:00,326.7263,5.3,12.89,47.84626,-54.09684
2022-12-03 21:19:00+00:00,326.3363,5.3,12.81,47.84626,-54.09684
2022-12-03 21:29:00+00:00,323.9479,5.3,12.81,47.84626,-54.09684
2022-12-03 21:39:00+00:00,318.0447,5.3,12.81,47.84626,-54.09684
2022-12-03 21:49:00+00:00,312.138,5.3,12.81,47.84626,-54.09684
2022-12-03 21:59:00+00:00,309.0397,5.3,12.81,47.84626,-54.09684
2022-12-03 22:09:00+00:00,300.303,5.3,12.81,47.84626,-54.09684
2022-12-03 22:19:00+00:00,290.858,5.3,12.73,47.84626,-54.09684
2022-12-03 22:29:00+00:00,288.5648,5.31,12.73,47.84626,-54.09684
2022-12-03 22:39:00+00:00,283.7364,5.3,12.73,47.84626,-54.09684
2022-12-03 22:49:00+00:00,272.6881,5.3,12.73,47.84626,-54.09684
2022-12-03 22:59:00+00:00,262.4664,5.3,12.73,47.84626,-54.09684
2022-12-03 23:09:00+00:00,259.2565,5.3,12.73,47.84626,-54.09684
2022-12-03 23:19:00+00:00,252.2798,5.2,12.73,47.84626,-54.09684
2022-12-03 23:29:00+00:00,243.3881,5.0,12.73,47.84626,-54.09684
2022-12-03 23:39:00+00:00,237.0598,5.0,12.73,47.84626,-54.09684
2022-12-03 23:49:00+00:00,236.6064,5.0,12.73,47.84626,-54.09684
2022-12-03 23:59:00+00:00,232.3881,5.0,12.73,47.84626,-54.09684
